Voltar ao catálogo

COSMOS 2251 DEB

AtivoLEO
NORAD 34678·DEBRIS·🇷🇺 Russia

Lançado Jun 16, 1993 de Plesetsk Cosmodrome

Loading…

Próximas Passagens (próximas 24 horas)

TLE

AtualizadoSource: Space-Track

Época: Sep 14, 2026, 15:43 UTC

1 34678U 93036XY  26257.65545263  .00000006  00000-0  12178-4 0  9996
2 34678  74.0359 224.0568 0025978 210.4431 325.9221 14.30101122913238

Acompanhe COSMOS 2251 DEB em tempo real com AllMySat

Download on the App Store